Flag for Greece Weather past 2 weeks in Thessaloniki, Greece

Now
90 °F

Passing clouds.


Feels Like: 89 °F
Forecast: 67 / 92 °F
Wind: 10 mph from West

Location: Thessaloniki Airport

Current Time: Aug 31, 2015 at 2:51:25 PM

Latest Report: Aug 31, 2015 at 1:50 PM


Visibility: N/A

Pressure: 30.09 "Hg

Humidity: 36%

Dew point: 59 °F

Location of ThessalonikiLocation

Historic Weather in Thessaloniki — Graph

°F

Thessaloniki temperature yesterday

Maximum temperature yesterday: 93 °F (at 2:50 PM)
Minimum temperature yesterday: 63 °F (at 5:20 AM)
Average temperature yesterday: 79 °F

Past Weeks' High & Low Weather Summary

 TemperatureHumidityPressure
High95 °F (Aug 16, 3:50 PM)94% (Aug 21, 5:50 AM)30.18 "Hg (Aug 21, 5:50 AM)
Low63 °F (Aug 23, 4:20 AM)20% (Aug 29, 5:50 PM)29.71 "Hg (Aug 16, 6:20 PM)
Average78 °F55%29.97 "Hg
* Reported Aug 16 1:20 PM — Aug 31 1:20 PM, Thessaloniki, Weather by CustomWeather, © 2015

Note: Actual official high and low records may vary slightly from our data, if they occured in-between our weather recording intervals... More about our weather records

Advertising

Thessaloniki weather history for previous 24 hours

 ConditionsComfort  
Time TempWeatherWind HumidityBarometerVisibility
1:20 PM
Mon, Aug 31
88 °FPassing clouds.12 mph43%30.09 "HgN/A
12:50 PM90 °FPassing clouds.9 mph36%30.09 "HgN/A
12:20 PM88 °FPassing clouds.7 mph38%30.09 "HgN/A
11:50 AM86 °FSunny.6 mph38%30.09 "Hg10 mi
11:20 AM84 °FSunny.7 mph48%30.12 "Hg10 mi
10:50 AM84 °FSunny.6 mph51%30.12 "Hg10 mi
10:20 AM82 °FSunny.6 mph55%30.12 "Hg10 mi
9:50 AM81 °FSunny.3 mph58%30.12 "Hg10 mi
9:20 AM82 °FSunny.2 mph48%30.12 "Hg10 mi
8:50 AM79 °FSunny.3 mph48%30.12 "Hg10 mi
8:20 AM75 °FSunny.5 mph50%30.12 "Hg10 mi
7:50 AM72 °FClear.6 mph57%30.12 "Hg10 mi
7:20 AM68 °FClear.6 mph64%30.12 "Hg10 mi
6:50 AM68 °FClear.6 mph64%30.12 "Hg10 mi
6:20 AM68 °FClear.7 mph64%30.09 "Hg10 mi
5:50 AM68 °FClear.5 mph64%30.09 "Hg10 mi
5:20 AM70 °FClear.3 mph60%30.09 "Hg10 mi
4:50 AM72 °FClear.3 mph57%30.09 "Hg10 mi
4:20 AM72 °FClear.3 mph61%30.12 "Hg10 mi
3:50 AM70 °FClear.3 mph64%30.12 "Hg10 mi
3:20 AM72 °FClear.2 mph61%30.12 "Hg10 mi
2:50 AM75 °FClear.3 mph54%30.12 "Hg10 mi
2:20 AM73 °FClear.3 mph53%30.12 "Hg10 mi
1:50 AM73 °FClear.1 mph57%30.12 "Hg10 mi
1:20 AM77 °FClear.2 mph51%30.12 "Hg10 mi
12:50 AM73 °FClear.3 mph57%30.12 "Hg10 mi
12:20 AM73 °FClear.5 mph57%30.12 "Hg10 mi
11:50 PM
Sun, Aug 30
75 °FClear.5 mph54%30.12 "Hg10 mi
11:20 PM75 °FClear.3 mph54%30.09 "Hg10 mi
10:20 PM77 °FClear.5 mph51%30.09 "Hg10 mi
9:50 PM79 °FClear.5 mph51%30.09 "Hg10 mi
9:20 PM82 °FPassing clouds.3 mph45%30.09 "HgN/A
8:50 PM82 °FPassing clouds.3 mph48%30.09 "HgN/A
8:20 PM84 °FPassing clouds.3 mph48%30.09 "HgN/A
7:50 PM90 °FPassing clouds.2 mph41%30.07 "HgN/A
7:20 PM91 °FPassing clouds.5 mph34%30.07 "HgN/A
6:50 PM91 °FPassing clouds.6 mph36%30.07 "HgN/A
6:20 PM91 °FPassing clouds.7 mph44%30.07 "HgN/A
5:50 PM91 °FPassing clouds.9 mph38%30.07 "HgN/A
5:20 PM93 °FPassing clouds.12 mph34%30.07 "HgN/A
4:50 PM93 °FPassing clouds.10 mph39%30.07 "HgN/A
4:20 PM93 °FPassing clouds.10 mph34%30.09 "HgN/A
3:50 PM93 °FPassing clouds.14 mph30%30.09 "HgN/A
3:20 PM93 °FPassing clouds.13 mph34%30.09 "HgN/A
2:50 PM93 °FPassing clouds.12 mph39%30.12 "HgN/A
2:20 PM91 °FPassing clouds.12 mph41%30.12 "HgN/A
Weather by CustomWeather, © 2015

See weather overviewHow to use our weather pages